Regional Weather Roundup
Issued by NWS

Home | Current Version | Previous Version | Text Only | Print | Product List | Glossary Off
Versions: 1 2 3 4 5 6 7 8 9 10 11 12 13 14 15 16 17 18 19 20 21 22 23 24 25 26 27 28 29 30 31 32 33 34 35 36 37 38 39 40 41 42 43 44 45 46 47 48 49 50

000
ASUS43 KBIS 071402
RWRND

NORTH DAKOTA REGIONAL WEATHER ROUNDUP
NATIONAL WEATHER SERVICE BISMARCK ND
900 AM CDT TUE JUL 07 2015

NOTE: "FAIR" INDICATES FEW OR NO CLOUDS BELOW 12,000 FEET WITH NO
SIGNIFICANT WEATHER AND/OR OBSTRUCTIONS TO VISIBILITY.


NDZ001>003-009>011-017-071500-
NORTHWEST NORTH DAKOTA

CITY           SKY/WX    TMP DP  RH WIND       PRES   REMARKS
WILLISTON      PTSUNNY   62  54  74 SE8       30.12F HAZE
MINOT          SUNNY     62  48  60 S13       30.14F
$$

NDZ018>021-031>035-040>046-071500-
SOUTHWEST NORTH DAKOTA

CITY           SKY/WX    TMP DP  RH WIND       PRES   REMARKS
BISMARCK       SUNNY     58  53  84 SE5       30.18F
DICKINSON      SUNNY     59  54  83 S12       30.13F HAZE
GARRISON         N/A     59  52  77 S12       30.15F
HETTINGER ARPT MOSUNNY   58  54  86 SE8       30.15F FOG
$$

NDZ004>008-012>016-024-026-027-054-071500-
NORTHEAST NORTH DAKOTA

CITY           SKY/WX    TMP DP  RH WIND       PRES   REMARKS
GRAND FORKS    SUNNY     60  49  66 SW10      30.19R
GRND FRKS AFB  SUNNY     61  50  66 W8        30.19S
DEVILS LAKE    SUNNY     61  48  63 SW12      30.17S
$$

NDZ022-023-025-028>030-036>039-047>053-071500-
SOUTHEAST NORTH DAKOTA

CITY           SKY/WX    TMP DP  RH WIND       PRES   REMARKS
FARGO          SUNNY     60  48  64 W3        30.21R
JAMESTOWN      SUNNY     59  48  67 S8        30.20S
$$




USA.gov is the U.S. government's official web portal to all federal, state and local government web resources and services.